CZ-2D DEB, 44606

Orbit data source: Space-Track

CZ-2D DEB, 44606 is space debris in SSO originally from a launch on Fri, 11 Nov 2016 UTC launched from the Jiuquan Satellite Launch Center, China (JSC). Debris objects in space refer to the collection of defunct objects orbiting the Earth. Examples of debris include non-operational satellites, rocket bodies, and fragments generated from explosions, collisions, or faulty payload assembly.

Loading next visibility...
Identifier
44606, 2016-068F
Orbit
SSO
Country
Flag of CNCN / PRC
Related business
Manufacturer
Unknown
Mission
Spacecraft
Bus & Motor
Unknown
Mass
Unknown
Launch date (UTC)
2016-11-11 (9 years ago)
Launch vehicle
Unknown
Launch site
Jiuquan Satellite Launch Center, China (JSC)
Object type
Payload
Rocket body
Debris
Shape & HBR
Unknown shape, 0.1 m
Radar Cross Section
Small (<0.1 m²)

Expand to show TLE details & history
Last TLE update: 13 hours ago

TLE from 13 hours ago
0 CZ-2D DEB
1 44606U 16068F   25291.00920011  .00001033  00000-0  67338-3 0  9990
2 44606  98.4432  24.1844 0225039 158.6841 202.3880 13.92644340452728
Epoch: 2025-10-18T00:13Z
TLE epoch observation values (Epoch: 2025-10-18T00:13:14.889Z)
Latitude
-0.00001°
Longitude
-5.87401°
Altitude
1,074.661 km
Speed
7.238 km/s
True Right ascension
01h 36m 44s
True Declination
0° 00' 00"
Sunlit
Object was in full shadow at epoch
Visualization orbit readout
Latitude
Unknown
Longitude
Unknown
Altitude
Unknown
Speed
Unknown
Apparent Right ascension
Unknown
Apparent Declination
Unknown
Sunlit
N/A
Visualization observer readout
Local Sidereal Time
07:49:03
Azimuth
Unknown
Elevation
Unknown
Doppler factor
Unknown
Orbital elements
Apogee altitude
1,080.718 km
Perigee altitude
752.4 km
Semi-major axis
7,294.696 km
Eccentricity
0.0225
Inclination
98.4432°
RAAN
24.1844°
Arg. of periapsis
158.6841°
True anomaly
201.43078°
Mean anomaly
202.388°
Eccentric anomaly
201.90693°
Mean motion
3.48363 °/min
Orbital period
103.34 mins
BSTAR
0.00067338
Loading maneuver chart data...
Computing Atmospheric mass density...
Loading historical data...
Loading historical data...
Loading historical data...
Loading historical data...
Loading historical data...
Loading historical data...
Loading historical data...

Documentation

Showing up to 5 results
|